Block Island, RI

3:37 PM EST on February 20, 2017 (GMT -0500)
Block Island State

Weather History for KBID - December, 2013

Change the Weather History Date:

Saturday, December 7, 2013

  Actual Average Record
Temperature  
Mean Temperature 38 °F -  
Max Temperature 42 °F 46 °F 61 °F (1953)
Min Temperature 33 °F 32 °F 18 °F (1954)
Degree Days  
Heating Degree Days 28    
Moisture  
Dew Point 27 °F    
Average Humidity 66    
Maximum Humidity 87    
Minimum Humidity 48    
Precipitation  
Precipitation 0.14 in - - ()
Sea Level Pressure  
Sea Level Pressure 30.25 in    
Wind  
Wind Speed 12 mph (NNW)    
Max Wind Speed 16 mph    
Max Gust Speed 25 mph    
Visibility 10 miles    
Events      
Averages and records for this station are not official NWS values.
T = Trace of Precipitation, MM = Missing Value Source: NWS Daily Summary

Daily Weather History Graph

Daily Weather History Graph

Search for Another Location

Airport or City:

Trip Planner

Search our weather history database for the weather conditions in past years. The results will help you decide how hot, cold, wet, or windy it might be!

Date:

Astronomy

Dec. 07, 2013 Rise Set
Actual Time 6:58 AM EST 4:17 PM EST
Civil Twilight 6:27 AM EST 4:48 PM EST
Nautical Twilight 5:52 AM EST 5:22 PM EST
Astronomical Twilight 5:19 AM EST 5:56 PM EST
Moon 10:39 AM EST (12/7) 9:57 PM EST (12/7)
Length of Visible Light 10h 20m
Length of Day
9h 19m
Waxing Crescent, 29% of the Moon is Illuminated
Dec 7
Waxing Crescent
Dec 9
First Quarter
Dec 17
Full
Dec 25
Last Quarter
Jan 1
New

Hourly Weather History & Observations

Time (EST) Temp. Windchill Dew Point Humidity Pressure Visibility Wind Dir Wind Speed Gust Speed Precip Events Conditions
12:15 AM 39.2 °F 31.2 °F 33.8 °F 81% 30.08 in 10.0 mi NNE 13.8 mph 19.6 mph N/A   Overcast
12:35 AM 39.2 °F 30.8 °F 35.6 °F 87% 30.09 in 8.0 mi North 15.0 mph 20.7 mph 0.01 in   Overcast
12:55 AM 39.2 °F 32.5 °F 33.8 °F 81% 30.08 in 7.0 mi NNE 10.4 mph - 0.03 in   Overcast
1:15 AM 37.4 °F 30.3 °F 33.8 °F 87% 30.05 in 7.0 mi NE 10.4 mph 17.3 mph 0.03 in   Mostly Cloudy
1:35 AM 37.4 °F 29.8 °F 33.8 °F 87% 30.09 in 10.0 mi North 11.5 mph 23.0 mph 0.06 in   Overcast
1:55 AM 37.4 °F 30.3 °F 33.8 °F 87% 30.07 in 9.0 mi NNE 10.4 mph - 0.08 in   Overcast
2:15 AM 37.4 °F 29.8 °F 33.8 °F 87% 30.06 in 10.0 mi NNE 11.5 mph - 0.03 in   Overcast
2:35 AM 37.4 °F 29.3 °F 33.8 °F 87% 30.06 in 10.0 mi NNE 12.7 mph 18.4 mph 0.03 in   Overcast
2:55 AM 37.4 °F 28.9 °F 33.8 °F 87% 30.07 in 10.0 mi NNE 13.8 mph 18.4 mph 0.03 in   Overcast
3:15 AM 37.4 °F 31.4 °F 33.8 °F 87% 30.07 in 10.0 mi NNE 8.1 mph - N/A   Overcast
3:35 AM 37.4 °F 29.3 °F 33.8 °F 87% 30.10 in 10.0 mi North 12.7 mph 16.1 mph N/A   Overcast
3:55 AM 37.4 °F 28.2 °F 32.0 °F 81% 30.13 in 8.0 mi North 16.1 mph 25.3 mph N/A   Overcast
4:15 AM 37.4 °F 29.3 °F 32.0 °F 81% 30.10 in 3.0 mi North 12.7 mph 21.9 mph N/A   Overcast
4:35 AM 37.4 °F 29.8 °F 32.0 °F 81% 30.13 in 10.0 mi North 11.5 mph 20.7 mph N/A   Overcast
4:55 AM 37.4 °F 28.9 °F 32.0 °F 81% 30.12 in 10.0 mi North 13.8 mph 18.4 mph N/A   Overcast
5:15 AM 37.4 °F 29.8 °F 32.0 °F 81% 30.14 in 10.0 mi North 11.5 mph 18.4 mph N/A   Overcast
5:35 AM 37.4 °F 30.8 °F 32.0 °F 81% 30.14 in 10.0 mi North 9.2 mph - N/A   Overcast
5:55 AM 37.4 °F 30.3 °F 32.0 °F 81% 30.15 in 10.0 mi North 10.4 mph 16.1 mph N/A   Overcast
6:15 AM 37.4 °F 30.8 °F 32.0 °F 81% 30.15 in 10.0 mi North 9.2 mph - N/A   Overcast
6:35 AM 37.4 °F 30.3 °F 32.0 °F 81% 30.16 in 10.0 mi North 10.4 mph - N/A   Overcast
6:55 AM 37.4 °F 30.8 °F 30.2 °F 75% 30.17 in 10.0 mi North 9.2 mph - N/A   Overcast
7:15 AM 37.4 °F 29.8 °F 30.2 °F 75% 30.18 in 10.0 mi North 11.5 mph 16.1 mph N/A   Overcast
7:35 AM 37.4 °F 30.3 °F 30.2 °F 75% 30.19 in 10.0 mi North 10.4 mph 17.3 mph N/A   Overcast
7:55 AM 37.4 °F 29.8 °F 30.2 °F 75% 30.20 in 10.0 mi North 11.5 mph 16.1 mph N/A   Overcast
8:15 AM 37.4 °F 28.9 °F 30.2 °F 75% 30.20 in 10.0 mi NNW 13.8 mph 18.4 mph N/A   Overcast
8:35 AM 37.4 °F 29.8 °F 30.2 °F 75% 30.22 in 10.0 mi North 11.5 mph 17.3 mph N/A   Overcast
8:55 AM 37.4 °F 32.1 °F 30.2 °F 75% 30.22 in 10.0 mi North 6.9 mph - N/A   Overcast
9:15 AM 37.4 °F 30.8 °F 30.2 °F 75% 30.22 in 10.0 mi NNW 9.2 mph 16.1 mph N/A   Overcast
9:35 AM 39.2 °F 33.0 °F 30.2 °F 70% 30.23 in 10.0 mi NNW 9.2 mph 17.3 mph N/A   Overcast
9:55 AM 39.2 °F 32.0 °F 32.0 °F 75% 30.23 in 10.0 mi NNW 11.5 mph - N/A   Overcast
10:15 AM 39.2 °F 32.0 °F 30.2 °F 70% 30.23 in 10.0 mi NNW 11.5 mph - N/A   Overcast
10:35 AM 39.2 °F 33.0 °F 28.4 °F 65% 30.23 in 10.0 mi NNW 9.2 mph - N/A   Overcast
10:55 AM 41.0 °F 34.3 °F 30.2 °F 65% 30.23 in 10.0 mi NW 11.5 mph - N/A   Overcast
11:15 AM 41.0 °F 34.7 °F 28.4 °F 61% 30.23 in 10.0 mi NNW 10.4 mph 16.1 mph N/A   Scattered Clouds
11:35 AM 41.0 °F 33.9 °F 28.4 °F 61% 30.22 in 10.0 mi North 12.7 mph 18.4 mph N/A   Clear
11:55 AM 42.8 °F 37.0 °F 28.4 °F 57% 30.22 in 10.0 mi NNW 10.4 mph 18.4 mph N/A   Partly Cloudy
12:15 PM 42.8 °F 36.2 °F 26.6 °F 53% 30.23 in 10.0 mi NNW 12.7 mph 18.4 mph N/A   Partly Cloudy
12:35 PM 41.0 °F 35.2 °F 26.6 °F 57% 30.23 in 10.0 mi NNW 9.2 mph 19.6 mph N/A   Partly Cloudy
12:55 PM 39.2 °F 32.0 °F 26.6 °F 61% 30.23 in 10.0 mi NNW 11.5 mph 21.9 mph N/A   Scattered Clouds
1:15 PM 39.2 °F 31.6 °F 28.4 °F 65% 30.24 in 10.0 mi NNW 12.7 mph 19.6 mph N/A   Mostly Cloudy
1:35 PM 39.2 °F 32.0 °F 26.6 °F 61% 30.24 in 10.0 mi NW 11.5 mph 17.3 mph N/A   Scattered Clouds
1:55 PM 39.2 °F 31.2 °F 26.6 °F 61% 30.24 in 10.0 mi NW 13.8 mph 20.7 mph N/A   Scattered Clouds
2:15 PM 39.2 °F 32.0 °F 24.8 °F 56% 30.25 in 10.0 mi NNW 11.5 mph 18.4 mph N/A   Partly Cloudy
2:35 PM 39.2 °F 31.6 °F 24.8 °F 56% 30.25 in 10.0 mi NW 12.7 mph 20.7 mph N/A   Partly Cloudy
2:55 PM 39.2 °F 31.2 °F 24.8 °F 56% 30.25 in 10.0 mi NNW 13.8 mph 21.9 mph N/A   Clear
3:15 PM 39.2 °F 31.6 °F 21.2 °F 49% 30.27 in 10.0 mi NNW 12.7 mph 19.6 mph N/A   Clear
3:35 PM 37.4 °F 28.5 °F 23.0 °F 56% 30.28 in 10.0 mi NNW 15.0 mph 19.6 mph N/A   Clear
3:55 PM 37.4 °F 32.1 °F 23.0 °F 56% 30.29 in 10.0 mi NNW 6.9 mph - N/A   Partly Cloudy
4:15 PM 37.4 °F 31.4 °F 21.2 °F 52% 30.30 in 10.0 mi NW 8.1 mph - N/A   Partly Cloudy
4:35 PM 37.4 °F 30.3 °F 21.2 °F 52% 30.31 in 10.0 mi NNW 10.4 mph - N/A   Partly Cloudy
4:55 PM 37.4 °F 29.3 °F 21.2 °F 52% 30.31 in 10.0 mi NW 12.7 mph 17.3 mph N/A   Partly Cloudy
5:15 PM 37.4 °F 30.3 °F 19.4 °F 48% 30.33 in 10.0 mi NW 10.4 mph - N/A   Clear
5:35 PM 37.4 °F 30.8 °F 21.2 °F 52% 30.33 in 10.0 mi NW 9.2 mph - N/A   Clear
5:55 PM 35.6 °F 28.0 °F 21.2 °F 56% 30.34 in 10.0 mi NNW 10.4 mph 16.1 mph N/A   Clear
6:15 PM 35.6 °F 28.0 °F 21.2 °F 56% 30.35 in 10.0 mi NNW 10.4 mph 18.4 mph N/A   Clear
6:35 PM 35.6 °F 28.0 °F 19.4 °F 52% 30.36 in 10.0 mi NNW 10.4 mph 18.4 mph N/A   Clear
6:55 PM 35.6 °F 29.9 °F 19.4 °F 52% 30.38 in 10.0 mi NW 6.9 mph - N/A   Clear
7:15 PM 35.6 °F 28.0 °F 21.2 °F 56% 30.38 in 10.0 mi NW 10.4 mph - N/A   Clear
7:35 PM 35.6 °F 28.6 °F 19.4 °F 52% 30.39 in 10.0 mi NNW 9.2 mph - N/A   Clear
7:55 PM 35.6 °F 28.0 °F 19.4 °F 52% 30.39 in 10.0 mi NW 10.4 mph 16.1 mph N/A   Clear
8:15 PM 35.6 °F 28.6 °F 19.4 °F 52% 30.40 in 10.0 mi NW 9.2 mph 20.7 mph N/A   Clear
8:35 PM 35.6 °F 27.1 °F 19.4 °F 52% 30.40 in 10.0 mi NW 12.7 mph 19.6 mph N/A   Clear
8:55 PM 35.6 °F 26.6 °F 19.4 °F 52% 30.40 in 10.0 mi NNW 13.8 mph 20.7 mph N/A   Clear
9:15 PM 35.6 °F 27.1 °F 19.4 °F 52% 30.42 in 10.0 mi NW 12.7 mph 20.7 mph N/A   Clear
9:35 PM 35.6 °F 26.6 °F 19.4 °F 52% 30.43 in 10.0 mi NW 13.8 mph 18.4 mph N/A   Clear
9:55 PM 33.8 °F 25.3 °F 19.4 °F 56% 30.42 in 10.0 mi NW 11.5 mph 18.4 mph N/A   Clear
10:15 PM 33.8 °F 24.3 °F 19.4 °F 56% 30.43 in 10.0 mi NW 13.8 mph 19.6 mph N/A   Clear
10:35 PM 33.8 °F 24.8 °F 19.4 °F 56% 30.43 in 10.0 mi NNW 12.7 mph 19.6 mph N/A   Clear
10:55 PM 33.8 °F 24.8 °F 19.4 °F 56% 30.44 in 10.0 mi NW 12.7 mph 19.6 mph N/A   Clear
11:15 PM 33.8 °F 25.8 °F 19.4 °F 56% 30.45 in 10.0 mi NNW 10.4 mph 19.6 mph N/A   Clear
11:35 PM 33.8 °F 25.3 °F 19.4 °F 56% 30.46 in 10.0 mi NNW 11.5 mph 18.4 mph N/A   Clear
11:55 PM 33.8 °F 24.8 °F 19.4 °F 56% 30.46 in 10.0 mi NW 12.7 mph 20.7 mph N/A   Clear